Flag for Germany Weather past 2 weeks in Ilmenau, Thuringia, Germany

Now
43 °F

Sunny.


Feels Like: 39 °F
Forecast: 45 / 64 °F
Wind: 6 mph from North

Location: Erfurt-Bindersleben


UV Index: 3 (Moderate)

Visibility: 10 mi


Pressure: 29.71 "Hg

Humidity: 93%

Dew point: 41 °F

Location of IlmenauLocation

Historic Weather in Ilmenau

°F

Ilmenau temperature yesterday

Maximum temperature yesterday: 63 °F (at 2:50 PM)
Minimum temperature yesterday: 48 °F (at 6:20 AM)
Average temperature yesterday: 55 °F

Past Weeks' High & Low Weather Summary

 TemperatureHumidityPressure
High68 °F (Apr 7, 4:20 PM)100% (Apr 6, 8:20 AM)30.42 "Hg (Apr 6, 8:20 AM)
Low30 °F (Apr 17, 6:50 AM)31% (Apr 17, 4:50 PM)29.71 "Hg (Apr 21, 3:50 AM)
Average48 °F75%30.04 "Hg
* Reported Apr 6 7:20 AM — Apr 21 7:20 AM, Ilmenau, Weather by CustomWeather, © 2014

Note: Actual official high and low records may vary slightly from our data, if they occured in-between our weather recording intervals... More about our weather records

Advertising

Historic Weather Conditions — Data for Previous 24 hours

 ConditionsComfort  
Time TempWeatherWind HumidityBarometerVisibility
7:20 AM
Apr 21
43 °FFog.5 mph93%29.71 "HgN/A
6:50 AM43 °FFog.2 mph100%29.71 "Hg6 mi
6:20 AM39 °FFog.2 mph100%29.71 "Hg5 mi
5:50 AM41 °FFog.2 mph93%29.71 "Hg5 mi
5:20 AM41 °FClear.2 mph93%29.71 "Hg10 mi
4:50 AM43 °FClear.1 mph93%29.71 "Hg10 mi
4:20 AM43 °FClear.3 mph87%29.71 "Hg10 mi
3:50 AM46 °FClear.2 mph82%29.71 "Hg10 mi
3:20 AM46 °FClear.3 mph87%29.74 "Hg10 mi
2:50 AM48 °FClear.3 mph82%29.74 "Hg10 mi
2:20 AM48 °FClear.3 mph82%29.74 "Hg10 mi
1:50 AM50 °FClear.5 mph76%29.74 "Hg10 mi
1:20 AM50 °FClear.5 mph82%29.77 "Hg10 mi
12:50 AM48 °FClear.3 mph82%29.77 "Hg10 mi
12:20 AM50 °FClear.5 mph82%29.77 "Hg10 mi
11:50 PM
Apr 20
50 °FClear.5 mph88%29.77 "Hg10 mi
11:20 PM52 °FClear.5 mph82%29.77 "Hg10 mi
10:50 PM52 °FClear.7 mph77%29.77 "Hg10 mi
10:20 PM52 °FPassing clouds.7 mph77%29.77 "HgN/A
9:50 PM52 °FScattered showers. Passing clouds.7 mph77%29.80 "HgN/A
9:20 PM50 °FScattered showers. Passing clouds.6 mph88%29.80 "HgN/A
8:50 PM52 °FScattered showers. Scattered clouds.8 mph82%29.80 "HgN/A
8:20 PM52 °FSprinkles. Scattered clouds.7 mph88%29.77 "HgN/A
7:50 PM52 °FThundershowers. Scattered clouds.6 mph82%29.77 "HgN/A
7:20 PM55 °FThunderstorms. Partly sunny.7 mph67%29.77 "HgN/A
6:50 PM57 °FThundershowers. Scattered clouds.6 mph72%29.77 "HgN/A
6:20 PM57 °FThunderstorms. Scattered clouds.8 mph67%29.77 "HgN/A
5:50 PM55 °FThunderstorms. Scattered clouds.10 mph72%29.77 "HgN/A
5:20 PM61 °FThunderstorms. Scattered clouds.17 mph55%29.77 "HgN/A
4:50 PM63 °FScattered showers. Scattered clouds.17 mph56%29.77 "HgN/A
4:20 PM61 °FSprinkles. Scattered clouds.12 mph59%29.77 "HgN/A
3:50 PM63 °FPartly sunny.14 mph56%29.77 "HgN/A
3:20 PM63 °FScattered clouds.16 mph52%29.77 "HgN/A
2:50 PM63 °FScattered clouds.18 mph52%29.80 "HgN/A
2:20 PM61 °FScattered clouds.15 mph59%29.80 "HgN/A
1:50 PM61 °FScattered clouds.14 mph59%29.80 "HgN/A
1:20 PM61 °FScattered clouds.13 mph59%29.80 "HgN/A
12:50 PM61 °FScattered clouds.10 mph63%29.80 "HgN/A
12:20 PM61 °FScattered clouds.10 mph55%29.83 "HgN/A
11:50 AM57 °FScattered clouds.12 mph67%29.83 "HgN/A
11:20 AM57 °FScattered clouds.12 mph67%29.83 "HgN/A
10:50 AM57 °FScattered clouds.9 mph67%29.83 "HgN/A
10:20 AM55 °FPassing clouds.10 mph77%29.83 "HgN/A
9:50 AM55 °FPassing clouds.12 mph77%29.83 "HgN/A
9:20 AM54 °FPassing clouds.13 mph77%29.83 "HgN/A
8:50 AM54 °FPassing clouds.12 mph77%29.83 "HgN/A
8:20 AM52 °FSunny.8 mph88%29.83 "Hg10 mi
Weather by CustomWeather, © 2014

See weather overview